User: anonymous   Login
Location: Unspecified
(0.0000°N, 0.0000°E)
Time: 13:11:50
(UTC+02:00)
Language:

Cosmos 1898 Rocket - Orbit

View from above orbital plane
View from above orbital plane
View from above satellite
View from above satellite

Ground track
Ground track

The orbit data is extracted from the following two-line orbital elements,

1 18586U 87098B   16211.37768685 -.00000011  00000-0  53745-5 0  9993
2 18586  74.0066 169.7306 0022062 300.7999 172.9049 14.36728367501009
Epoch (UTC): 29 July 2016 09:03:52
Eccentricity: 0.0022062
inclination: 74.0066°
perigee height: 753 km
apogee height: 785 km
right ascension of ascending node: 169.7306°
argument of perigee: 300.7999°
revolutions per day: 14.36728367
mean anomaly at epoch: 172.9049°
orbit number at epoch: 50100

The dashed part of the orbit path shows where the satellite is in the earth's shadow,  

DLR